FW2823 Weather Reports


Display with metric or nautical units.
time (UTC)temp
F
wind
direction
speed
MPH
gust
MPH
rain 1hr
in
rain 24hr
in
rain mn
in
humidity
%
barometer
mb
20260509090713 42 293 0.0 2.0 0.00 0.00 0.00 70 1027.1
20260509090208 42 0 0.0 4.0 0.00 0.00 0.00 70 1027.0
20260509085653 42 248 0.0 4.0 0.00 0.00 0.00 67 1027.0
20260509085144 42 225 1.0 7.0 0.00 0.00 0.00 64 1026.7
20260509084636 41 293 3.0 7.0 0.00 0.00 0.00 67 1026.8
20260509084123 41 270 0.0 4.0 0.00 0.00 0.00 69 1026.7
20260509083612 41 338 0.0 8.0 0.00 0.00 0.00 74 1026.5
20260509083103 42 338 0.0 9.0 0.00 0.00 0.00 67 1026.4
20260509082553 41 135 2.0 9.0 0.00 0.00 0.00 68 1026.1
20260509081539 40 248 0.0 4.0 0.00 0.00 0.00 75 1026.3
20260509081021 39 270 0.0 7.0 0.00 0.00 0.00 78 1026.1
20260509080512 39 315 0.0 7.0 0.00 0.00 0.00 79 1026.1
20260509080003 38 338 4.0 7.0 0.00 0.00 0.00 82 1026.4
20260509075456 38 338 1.0 7.0 0.00 0.00 0.00 82 1026.3
20260509074942 38 225 3.0 7.0 0.00 0.00 0.00 85 1025.9
20260509074444 38 23 2.0 4.0 0.00 0.00 0.00 82 1026.3
20260509073921 38 23 2.0 4.0 0.00 0.00 0.00 83 1025.9
20260509073410 39 338 2.0 4.0 0.00 0.00 0.00 80 1025.9
20260509072352 40 225 0.0 4.0 0.00 0.00 0.00 73 1025.8
20260509071841 40 0 1.0 8.0 0.00 0.00 0.00 79 1025.7
20260509071331 39 113 3.0 8.0 0.00 0.00 0.00 71 1025.8
20260509070821 39 315 1.0 7.0 0.00 0.00 0.00 81 1025.6
20260509070314 37 23 3.0 8.0 0.00 0.00 0.00 78 1025.4
20260509065801 37 0 2.0 8.0 0.00 0.00 0.00 88 1025.4
20260509065250 37 0 4.0 6.0 0.00 0.00 0.00 88 1025.3
20260509064740 37 23 2.0 6.0 0.00 0.00 0.00 88 1025.3
20260509064230 37 45 2.0 6.0 0.00 0.00 0.00 88 1025.2
20260509063723 37 23 3.0 4.0 0.00 0.00 0.00 88 1025.2
20260509062659 37 0 2.0 6.0 0.00 0.00 0.00 88 1025.0
20260509061638 37 0 0.0 2.0 0.00 0.00 0.00 88 1025.1
20260509060619 38 45 0.0 4.0 0.00 0.00 0.00 86 1025.0
20260509055558 39 23 2.0 4.0 0.00 0.00 0.00 86 1025.0
20260509055048 40 0 2.0 4.0 0.00 0.00 0.00 83 1024.7
20260509054546 40 293 0.0 2.0 0.00 0.00 0.00 78 1024.9
20260509054028 41 248 0.0 4.0 0.00 0.00 0.00 77 1024.9
20260509053517 41 248 0.0 4.0 0.00 0.00 0.00 75 1024.5
20260509053020 42 23 0.0 6.0 0.00 0.00 0.00 77 1024.5
20260509051951 44 113 0.0 0.0 0.00 0.00 0.00 90 1024.0
20260509051716 44 45 1.0 0.0 0.00 0.00 0.00 92 1024.0
20260509050818 45 158 0.0 4.0 0.00 0.00 0.00 92 1024.0
20260509044229 44 293 0.0 2.0 0.00 0.00 0.00 92 1023.1
20260509043718 44 315 0.0 2.0 0.00 0.00 0.00 91 1023.0
20260509043210 45 293 0.0 0.0 0.00 0.00 0.00 91 1022.9
20260509042147 44 293 0.0 2.0 0.00 0.00 0.00 91 1022.9
20260509041637 44 293 0.0 2.0 0.00 0.00 0.00 90 1022.7
20260509041126 44 293 2.0 2.0 0.00 0.00 0.00 90 1022.1
20260509040620 44 315 1.0 4.0 0.00 0.00 0.00 91 1022.1
20260509040116 44 293 2.0 4.0 0.00 0.00 0.00 92 1022.1
20260509035558 44 338 0.0 2.0 0.00 0.00 0.00 93 1021.8
20260509035047 44 45 0.0 0.0 0.00 0.00 0.00 93 1021.8
20260509034541 44 45 0.0 0.0 0.00 0.00 0.00 93 1021.5
20260509033516 44 45 0.0 0.0 0.00 0.00 0.00 94 1021.4
20260509033018 44 45 0.0 0.0 0.00 0.00 0.00 93 1021.3
20260509032457 44 45 0.0 0.0 0.00 0.00 0.00 94 1021.0
20260509031946 44 45 0.0 0.0 0.00 0.00 0.00 94 1020.8
20260509030925 44 45 0.0 0.0 0.00 0.00 0.00 93 1020.7
20260509025906 44 113 0.0 2.0 0.00 0.00 0.00 93 1020.6
20260509025355 44 113 0.0 2.0 0.00 0.00 0.00 93 1020.4
20260509024900 44 113 0.0 2.0 0.00 0.00 0.00 93 1020.7
20260509024334 44 113 0.0 0.0 0.00 0.00 0.00 93 1020.3
20260509023314 45 113 0.0 2.0 0.00 0.00 0.00 93 1020.2
20260509022805 45 90 0.0 2.0 0.00 0.00 0.00 93 1020.1
20260509022257 44 68 0.0 2.0 0.00 0.00 0.00 93 1019.9
20260509021744 44 68 0.0 0.0 0.00 0.00 0.00 93 1019.5
20260509021234 44 23 0.0 2.0 0.00 0.00 0.00 93 1019.6
20260509020724 44 23 1.0 2.0 0.00 0.00 0.00 92 1019.3
20260509015153 44 23 0.0 2.0 0.00 0.00 0.00 92 1019.2
20260509014643 44 23 0.0 2.0 0.00 0.00 0.00 93 1019.0
20260509014133 44 23 0.0 2.0 0.00 0.00 0.00 93 1018.8
20260509012617 44 23 0.0 0.0 0.00 0.00 0.00 93 1018.8
20260509012052 44 23 0.0 2.0 0.00 0.00 0.00 92 1019.2
20260509011543 44 23 0.0 2.0 0.00 0.00 0.00 92 1018.8
20260509011032 44 45 0.0 0.0 0.00 0.00 0.00 92 1018.9
20260509010525 44 68 0.0 0.0 0.00 0.00 0.00 92 1019.0
20260509010014 44 23 0.0 0.0 0.00 0.00 0.00 92 1018.8
20260509003935 44 23 0.0 2.0 0.00 0.00 0.00 92 1018.3
20260509003421 43 0 0.0 2.0 0.00 0.00 0.00 92 1018.1
20260509002911 43 0 0.0 2.0 0.00 0.00 0.00 92 1018.5
20260509002402 43 0 0.0 2.0 0.00 0.00 0.00 92 1018.3
20260509001854 43 23 0.0 2.0 0.00 0.00 0.00 92 1018.0
20260509000831 43 23 1.0 2.0 0.00 0.00 0.00 92 1018.0
20260508235810 43 23 0.0 2.0 0.00 0.00 0.00 92 1017.9
20260508235305 42 23 0.0 2.0 0.00 0.00 0.00 92 1018.0
20260508234753 42 23 0.0 2.0 0.00 0.00 0.00 92 1017.8
20260508234240 42 0 0.0 2.0 0.00 0.00 0.00 92 1018.2
20260508233729 42 23 0.0 2.0 0.00 0.00 0.00 92 1018.0
20260508233219 42 45 0.0 2.0 0.00 0.00 0.00 92 1018.1
20260508232203 41 23 0.0 2.0 0.00 0.00 0.00 93 1018.0
20260508231649 41 45 0.0 2.0 0.00 0.00 0.00 92 1018.0
20260508231151 41 68 1.0 2.0 0.00 0.00 0.00 92 1017.6
20260508230642 41 23 0.0 2.0 0.00 0.00 0.00 92 1017.5
20260508225059 41 23 0.0 2.0 0.00 0.00 0.00 92 1017.5
20260508224548 42 45 0.0 2.0 0.00 0.00 0.00 91 1017.2
20260508223541 43 113 0.0 2.0 0.00 0.00 0.00 91 1017.1
20260508223021 43 113 0.0 2.0 0.00 0.00 0.00 91 1016.6
20260508222507 43 113 0.0 2.0 0.00 0.00 0.00 90 1016.5
20260508221957 43 113 0.0 0.0 0.00 0.00 0.00 89 1016.4
20260508221447 44 113 0.0 2.0 0.00 0.00 0.00 87 1016.5
20260508220937 44 113 0.0 2.0 0.00 0.00 0.00 86 1016.1
20260508220442 44 135 1.0 2.0 0.00 0.00 0.00 86 1016.5
20260508215407 44 158 0.0 2.0 0.00 0.00 0.00 86 1016.4
20260508214857 44 158 0.0 4.0 0.00 0.00 0.00 85 1016.7
20260508214347 45 135 2.0 4.0 0.00 0.00 0.00 84 1016.6
20260508213839 45 113 2.0 4.0 0.00 0.00 0.00 82 1016.7
20260508213326 44 0 1.0 4.0 0.00 0.00 0.00 82 1016.5
20260508212816 44 225 1.0 4.0 0.00 0.00 0.00 82 1016.4
20260508212307 44 225 0.0 2.0 0.00 0.00 0.00 83 1016.4
20260508211756 44 270 1.0 2.0 0.00 0.00 0.00 82 1016.5
20260508210735 45 293 1.0 4.0 0.00 0.00 0.00 81 1015.7
20260508210225 45 0 2.0 6.0 0.00 0.00 0.00 80 1016.0
20260508205715 45 270 4.0 6.0 0.00 0.00 0.00 79 1016.1
20260508205205 46 315 0.0 4.0 0.00 0.00 0.00 78 1016.0
20260508204658 46 293 1.0 7.0 0.00 0.00 0.00 76 1016.1
20260508203637 46 315 3.0 8.0 0.00 0.00 0.00 74 1016.4
20260508203125 46 293 3.0 8.0 0.00 0.00 0.00 77 1015.9
20260508202615 46 315 2.0 7.0 0.00 0.00 0.00 78 1016.4
20260508202106 47 248 1.0 7.0 0.00 0.00 0.00 77 1016.3
20260508201557 47 338 4.0 7.0 0.00 0.00 0.00 76 1016.1
20260508200023 49 315 2.0 7.0 0.00 0.00 0.00 72 1016.5
20260508195516 50 338 3.0 4.0 0.00 0.00 0.00 69 1016.5
20260508195005 49 315 2.0 7.0 0.00 0.00 0.00 71 1016.7
20260508194505 49 293 3.0 7.0 0.00 0.00 0.00 71 1016.7
20260508193943 49 338 2.0 8.0 0.00 0.00 0.00 67 1017.3
20260508193433 49 203 1.0 8.0 0.00 0.00 0.00 69 1016.8
20260508192925 50 68 2.0 9.0 0.00 0.00 0.00 69 1017.1
20260508192413 50 203 2.0 9.0 0.00 0.00 0.00 69 1016.8
20260508191902 52 68 1.0 9.0 0.00 0.00 0.00 65 1017.4
20260508191352 53 23 4.0 9.0 0.00 0.00 0.00 64 1017.0
20260508190841 51 90 2.0 9.0 0.00 0.00 0.00 68 1016.6
20260508190334 51 45 3.0 9.0 0.00 0.00 0.00 65 1017.0
20260508185822 52 90 2.0 11.0 0.00 0.00 0.00 64 1017.3
20260508185311 52 23 2.0 11.0 0.00 0.00 0.00 63 1017.2
20260508184802 52 23 3.0 11.0 0.00 0.00 0.00 63 1017.4
20260508183744 51 90 4.0 9.0 0.00 0.00 0.00 66 1017.5
20260508183231 52 113 4.0 9.0 0.00 0.00 0.00 62 1017.3
20260508182211 52 45 4.0 13.0 0.00 0.00 0.00 63 1016.8
20260508180133 53 315 4.0 6.0 0.00 0.00 0.00 64 1018.5
20260508174602 51 315 4.0 11.0 0.00 0.00 0.00 66 1018.5
20260508174049 51 23 2.0 8.0 0.00 0.00 0.00 67 1018.3
20260508173539 51 293 4.0 8.0 0.00 0.00 0.00 65 1018.7
20260508172013 51 270 3.0 9.0 0.00 0.00 0.00 69 1019.3
20260508171459 50 293 4.0 9.0 0.00 0.00 0.00 70 1019.9
20260508170441 50 293 4.0 11.0 0.00 0.00 0.00 69 1020.0
20260508165930 50 293 4.0 11.0 0.00 0.00 0.00 71 1020.1
20260508165423 51 315 5.0 9.0 0.00 0.00 0.00 69 1020.3